Year,Month,Day,Hour,Minute,Value (Times are PST for temperature in C)
2018,06,29,00,00,13.20
2018,06,29,00,01,13.30
2018,06,29,00,02,13.30
2018,06,29,00,03,13.30
2018,06,29,00,04,13.30
2018,06,29,00,05,13.30
2018,06,29,00,06,13.30
2018,06,29,00,07,13.30
2018,06,29,00,08,13.30
2018,06,29,00,09,13.30
2018,06,29,00,10,13.30
2018,06,29,00,11,13.30
2018,06,29,00,12,13.30
2018,06,29,00,13,13.30
2018,06,29,00,14,13.30
2018,06,29,00,15,13.30
2018,06,29,00,16,13.30
2018,06,29,00,17,13.30
2018,06,29,00,18,13.30
2018,06,29,00,19,13.30
2018,06,29,00,20,13.30
2018,06,29,00,21,13.30
2018,06,29,00,22,13.30
2018,06,29,00,23,13.30
2018,06,29,00,24,13.30
2018,06,29,00,25,13.30
2018,06,29,00,26,13.30
2018,06,29,00,27,13.30
2018,06,29,00,28,13.30
2018,06,29,00,29,13.30
2018,06,29,00,30,13.30
2018,06,29,00,31,13.30
2018,06,29,00,32,13.30
2018,06,29,00,33,13.30
2018,06,29,00,34,13.30
2018,06,29,00,35,13.40
2018,06,29,00,36,13.30
2018,06,29,00,37,13.40
2018,06,29,00,38,13.30
2018,06,29,00,39,13.40
2018,06,29,00,40,13.40
2018,06,29,00,41,13.40
2018,06,29,00,42,13.40
2018,06,29,00,43,13.40
2018,06,29,00,44,13.40
2018,06,29,00,45,13.30
2018,06,29,00,46,13.40
2018,06,29,00,47,13.40
2018,06,29,00,48,13.30
2018,06,29,00,49,13.30
2018,06,29,00,50,13.40
2018,06,29,00,51,13.40
2018,06,29,00,52,13.40
2018,06,29,00,53,13.40
2018,06,29,00,54,13.40
2018,06,29,00,55,13.40
2018,06,29,00,56,13.40
2018,06,29,00,57,13.40
2018,06,29,00,58,13.40
2018,06,29,00,59,13.40
2018,06,29,01,00,13.40
2018,06,29,01,01,13.40
2018,06,29,01,02,13.40
2018,06,29,01,03,13.40
2018,06,29,01,04,13.40
2018,06,29,01,05,13.40
2018,06,29,01,06,13.40
2018,06,29,01,07,13.40
2018,06,29,01,08,13.40
2018,06,29,01,09,13.40
2018,06,29,01,10,13.40
2018,06,29,01,11,13.40
2018,06,29,01,12,13.40
2018,06,29,01,13,13.40
2018,06,29,01,14,13.40
2018,06,29,01,15,13.40
2018,06,29,01,16,13.40
2018,06,29,01,17,13.40
2018,06,29,01,18,13.40
2018,06,29,01,19,13.40
2018,06,29,01,20,13.50
2018,06,29,01,21,13.50
2018,06,29,01,22,13.50
2018,06,29,01,23,13.50
2018,06,29,01,24,13.50
2018,06,29,01,25,13.50
2018,06,29,01,26,13.60
2018,06,29,01,27,13.60
2018,06,29,01,28,13.60
2018,06,29,01,29,13.60
2018,06,29,01,30,13.60
2018,06,29,01,31,13.60
2018,06,29,01,32,13.60
2018,06,29,01,33,13.60
2018,06,29,01,34,13.60
2018,06,29,01,35,13.60
2018,06,29,01,36,13.60
2018,06,29,01,37,13.60
2018,06,29,01,38,13.60
2018,06,29,01,39,13.60
2018,06,29,01,40,13.60
2018,06,29,01,41,13.60
2018,06,29,01,42,13.60
2018,06,29,01,43,13.50
2018,06,29,01,44,13.50
2018,06,29,01,45,13.50
2018,06,29,01,46,13.50
2018,06,29,01,47,13.60
2018,06,29,01,48,13.50
2018,06,29,01,49,13.50
2018,06,29,01,50,13.50
2018,06,29,01,51,13.60
2018,06,29,01,52,13.60
2018,06,29,01,53,13.60
2018,06,29,01,54,13.60
2018,06,29,01,55,13.60
2018,06,29,01,56,13.60
2018,06,29,01,57,13.60
2018,06,29,01,58,13.60
2018,06,29,01,59,13.70
2018,06,29,02,00,13.70
2018,06,29,02,01,13.70
2018,06,29,02,02,13.70
2018,06,29,02,03,13.70
2018,06,29,02,04,13.70
2018,06,29,02,05,13.70
2018,06,29,02,06,13.70
2018,06,29,02,07,13.70
2018,06,29,02,08,13.70
2018,06,29,02,09,13.70
2018,06,29,02,10,13.70
2018,06,29,02,11,13.60
2018,06,29,02,12,13.60
2018,06,29,02,13,13.60
2018,06,29,02,14,13.60
2018,06,29,02,15,13.60
2018,06,29,02,16,13.60
2018,06,29,02,17,13.60
2018,06,29,02,18,13.60
2018,06,29,02,19,13.60
2018,06,29,02,20,13.60
2018,06,29,02,21,13.60
2018,06,29,02,22,13.60
2018,06,29,02,23,13.60
2018,06,29,02,24,13.70
2018,06,29,02,25,13.70
2018,06,29,02,26,13.70
2018,06,29,02,27,13.70
2018,06,29,02,28,13.70
2018,06,29,02,29,13.70
2018,06,29,02,30,13.70
2018,06,29,02,31,13.70
2018,06,29,02,32,13.70
2018,06,29,02,33,13.70
2018,06,29,02,34,13.70
2018,06,29,02,35,13.80
2018,06,29,02,36,13.80
2018,06,29,02,37,13.80
2018,06,29,02,38,13.80
2018,06,29,02,39,13.80
2018,06,29,02,40,13.80
2018,06,29,02,41,13.80
2018,06,29,02,42,13.80
2018,06,29,02,43,13.80
2018,06,29,02,44,13.80
2018,06,29,02,45,13.80
2018,06,29,02,46,13.80
2018,06,29,02,47,13.80
2018,06,29,02,48,13.80
2018,06,29,02,49,13.80
2018,06,29,02,50,13.80
2018,06,29,02,51,13.80
2018,06,29,02,52,13.80
2018,06,29,02,53,13.80
2018,06,29,02,54,13.80
2018,06,29,02,55,13.80
2018,06,29,02,56,13.80
2018,06,29,02,57,13.80
2018,06,29,02,58,13.90
2018,06,29,02,59,13.90
2018,06,29,03,00,13.90
2018,06,29,03,01,13.90
2018,06,29,03,02,13.90
2018,06,29,03,03,13.90
2018,06,29,10,04,13.90
2018,06,29,10,05,14.00
2018,06,29,10,06,14.00
2018,06,29,10,07,14.00
2018,06,29,10,08,14.10
2018,06,29,10,09,14.10
2018,06,29,10,10,14.10
2018,06,29,10,11,14.10
2018,06,29,10,12,14.20
2018,06,29,10,13,14.20
2018,06,29,10,14,14.20
2018,06,29,10,15,14.20
2018,06,29,10,16,14.20
2018,06,29,10,17,14.20
2018,06,29,10,18,14.20
2018,06,29,10,19,14.20
2018,06,29,10,20,14.20
2018,06,29,10,21,14.20
2018,06,29,10,22,14.30
2018,06,29,10,23,14.30
2018,06,29,10,24,14.30
2018,06,29,10,25,14.30
2018,06,29,10,26,14.30
2018,06,29,10,27,14.30
2018,06,29,10,28,14.30
2018,06,29,10,29,14.30
2018,06,29,10,30,14.30
2018,06,29,10,31,14.30
2018,06,29,10,32,14.30
2018,06,29,10,33,14.30
2018,06,29,10,34,14.30
2018,06,29,10,35,14.30
2018,06,29,10,36,14.30
2018,06,29,10,37,14.30
2018,06,29,10,38,14.30
2018,06,29,10,39,14.30
2018,06,29,10,40,14.30
2018,06,29,10,41,14.30
2018,06,29,10,42,14.30
2018,06,29,10,43,14.30
2018,06,29,10,44,14.30
2018,06,29,10,45,14.30
2018,06,29,10,46,14.30
2018,06,29,10,47,14.30
2018,06,29,10,48,14.30
2018,06,29,10,49,14.30
2018,06,29,10,50,14.30
2018,06,29,10,51,14.30
2018,06,29,10,52,14.30
2018,06,29,10,53,14.40
2018,06,29,10,54,14.40
2018,06,29,10,55,14.40
2018,06,29,10,56,14.50
2018,06,29,10,57,14.50
2018,06,29,10,58,14.50
2018,06,29,10,59,14.50
2018,06,29,11,00,14.50
2018,06,29,11,01,14.50
2018,06,29,11,02,14.50
2018,06,29,11,03,14.50
2018,06,29,11,04,14.50
2018,06,29,11,05,14.50
2018,06,29,11,06,14.50
2018,06,29,11,07,14.50
2018,06,29,11,08,14.50
2018,06,29,11,09,14.50
2018,06,29,11,10,14.40
2018,06,29,11,11,14.40
2018,06,29,11,12,14.40
2018,06,29,11,13,14.40
2018,06,29,11,14,14.50
2018,06,29,11,15,14.50
2018,06,29,11,16,14.50
2018,06,29,11,17,14.60
2018,06,29,11,18,14.60
2018,06,29,11,19,14.60
2018,06,29,11,20,14.60
2018,06,29,11,21,14.60
2018,06,29,11,22,14.60
2018,06,29,11,23,14.60
2018,06,29,11,24,14.70
2018,06,29,11,25,14.60
2018,06,29,11,26,14.60
2018,06,29,11,27,14.70
2018,06,29,11,28,14.60
2018,06,29,11,29,14.60
2018,06,29,11,30,14.70
2018,06,29,11,31,14.70
2018,06,29,11,32,14.70
2018,06,29,11,33,14.70
2018,06,29,11,34,14.70
2018,06,29,11,35,14.70
2018,06,29,11,36,14.70
2018,06,29,11,37,14.70
2018,06,29,11,38,14.80
2018,06,29,11,39,14.80
2018,06,29,11,40,14.80
2018,06,29,11,41,14.80
2018,06,29,11,42,14.80
2018,06,29,11,43,14.80
2018,06,29,11,44,14.80
2018,06,29,11,45,14.90
2018,06,29,11,46,14.90
2018,06,29,11,47,14.90
2018,06,29,11,48,14.90
2018,06,29,11,49,14.90
2018,06,29,11,50,14.90
2018,06,29,11,51,14.90
2018,06,29,11,52,14.90
2018,06,29,11,53,14.90
2018,06,29,11,54,15.00
2018,06,29,11,55,15.00
2018,06,29,11,56,15.10
2018,06,29,11,57,15.10
2018,06,29,11,58,15.20
2018,06,29,11,59,15.30
2018,06,29,12,00,15.30
2018,06,29,12,01,15.30
2018,06,29,12,02,15.30
2018,06,29,12,03,15.30
2018,06,29,12,04,15.30
2018,06,29,12,05,15.40
2018,06,29,12,06,15.40
2018,06,29,12,07,15.40
2018,06,29,12,08,15.40
2018,06,29,12,09,15.50
2018,06,29,12,10,15.50
2018,06,29,12,11,15.60
2018,06,29,12,12,15.60
2018,06,29,12,13,15.70
2018,06,29,12,14,15.70
2018,06,29,12,15,15.70
2018,06,29,12,16,15.70
2018,06,29,12,17,15.80
2018,06,29,12,18,15.80
2018,06,29,12,19,15.80
2018,06,29,12,20,15.80
2018,06,29,12,21,15.80
2018,06,29,12,22,15.80
2018,06,29,12,23,15.80
2018,06,29,12,24,15.80
2018,06,29,12,25,15.80
2018,06,29,12,26,15.80
2018,06,29,12,27,15.80
2018,06,29,12,28,15.80
2018,06,29,12,29,15.80
2018,06,29,12,30,15.80
2018,06,29,12,31,15.80
2018,06,29,12,32,15.80
2018,06,29,12,33,15.80
2018,06,29,12,34,15.80
2018,06,29,12,35,15.80
2018,06,29,12,36,15.80
2018,06,29,12,37,15.80
2018,06,29,12,38,15.80
2018,06,29,12,39,15.70
2018,06,29,12,40,15.70
2018,06,29,12,41,15.70
2018,06,29,12,42,15.60
2018,06,29,12,43,15.60
2018,06,29,12,44,15.60
2018,06,29,12,45,15.60
2018,06,29,12,46,15.50
2018,06,29,12,47,15.40
2018,06,29,12,48,15.40
2018,06,29,12,49,15.40
2018,06,29,12,50,15.40
2018,06,29,12,51,15.40
2018,06,29,12,52,15.50
2018,06,29,12,53,15.50
2018,06,29,12,54,15.50
2018,06,29,12,55,15.60
2018,06,29,12,56,15.60
2018,06,29,12,57,15.70
2018,06,29,12,58,15.70
2018,06,29,12,59,15.70
2018,06,29,13,00,15.70
2018,06,29,13,01,15.70
2018,06,29,13,02,15.80
2018,06,29,13,03,15.80
2018,06,29,13,04,15.80
2018,06,29,13,05,15.80
2018,06,29,13,06,15.80
2018,06,29,13,07,15.80
2018,06,29,13,08,15.80
2018,06,29,13,09,15.80
2018,06,29,13,10,15.70
2018,06,29,13,11,15.70
2018,06,29,13,12,15.70
2018,06,29,13,13,15.70
2018,06,29,13,14,15.70
2018,06,29,13,15,15.70
2018,06,29,13,16,15.60
2018,06,29,13,17,15.60
2018,06,29,13,18,15.60
2018,06,29,13,19,15.60
2018,06,29,13,20,15.60
2018,06,29,13,21,15.60
2018,06,29,13,22,15.60
2018,06,29,13,23,15.60
2018,06,29,13,24,15.60
2018,06,29,13,25,15.60
2018,06,29,13,26,15.60
2018,06,29,13,27,15.60
2018,06,29,13,28,15.60
2018,06,29,13,29,15.60
2018,06,29,13,30,15.60
2018,06,29,13,31,15.60
2018,06,29,13,32,15.60
2018,06,29,13,33,15.60
2018,06,29,13,34,15.70
2018,06,29,13,35,15.70
2018,06,29,13,36,15.70
2018,06,29,13,37,15.70
2018,06,29,13,38,15.70
2018,06,29,13,39,15.70
2018,06,29,13,40,15.70
2018,06,29,13,41,15.70
2018,06,29,13,42,15.70
2018,06,29,13,43,15.70
2018,06,29,13,44,15.80
2018,06,29,13,45,15.70
2018,06,29,13,46,15.80
2018,06,29,13,47,15.80
2018,06,29,13,48,15.80
2018,06,29,13,49,15.80
2018,06,29,13,50,15.80
2018,06,29,13,51,15.80
2018,06,29,13,52,15.80
2018,06,29,13,53,15.80
2018,06,29,13,54,15.70
2018,06,29,13,55,15.70
2018,06,29,13,56,15.70
2018,06,29,13,57,15.70
2018,06,29,13,58,15.70
2018,06,29,13,59,15.80
2018,06,29,14,00,15.80
2018,06,29,14,01,15.80
2018,06,29,14,02,15.80
2018,06,29,14,03,15.90
2018,06,29,14,04,15.90
2018,06,29,14,05,15.90
2018,06,29,14,06,15.90
2018,06,29,14,07,15.90
2018,06,29,14,08,15.90
2018,06,29,14,09,16.00
2018,06,29,14,10,16.00
2018,06,29,14,11,16.00
2018,06,29,14,12,16.00
2018,06,29,14,13,16.10
2018,06,29,14,14,16.10
2018,06,29,14,15,16.10
2018,06,29,14,16,16.10
2018,06,29,14,17,16.10
2018,06,29,14,18,16.20
2018,06,29,14,19,16.10
2018,06,29,14,20,16.20
2018,06,29,14,21,16.20
2018,06,29,14,22,16.10
2018,06,29,14,23,16.10
2018,06,29,14,24,16.10
2018,06,29,14,25,16.20
2018,06,29,14,26,16.20
2018,06,29,14,27,16.20
2018,06,29,14,28,16.20
2018,06,29,14,29,16.20
2018,06,29,14,30,16.20
2018,06,29,14,31,16.20
2018,06,29,14,32,16.20
2018,06,29,14,33,16.30
2018,06,29,14,34,16.30
2018,06,29,14,35,16.30
2018,06,29,14,36,16.30
2018,06,29,14,37,16.30
2018,06,29,14,38,16.40
2018,06,29,14,39,16.40
2018,06,29,14,40,16.40
2018,06,29,14,41,16.40
2018,06,29,14,42,16.50
2018,06,29,14,43,16.50
2018,06,29,14,44,16.50
2018,06,29,14,45,16.50
2018,06,29,14,46,16.50
2018,06,29,14,47,16.60
2018,06,29,14,48,16.60
2018,06,29,14,49,16.70
2018,06,29,14,50,16.80
2018,06,29,14,51,16.80
2018,06,29,14,52,16.80
2018,06,29,14,53,16.90
2018,06,29,14,54,17.00
2018,06,29,14,55,17.00
2018,06,29,14,56,17.10
2018,06,29,14,57,17.20
2018,06,29,14,58,17.30
2018,06,29,14,59,17.30
2018,06,29,15,00,17.40
2018,06,29,15,01,17.40
2018,06,29,15,02,17.40
2018,06,29,15,03,17.40
2018,06,29,15,04,17.40
2018,06,29,15,05,17.40
2018,06,29,15,06,17.50
2018,06,29,15,07,17.50
2018,06,29,15,08,17.50
2018,06,29,15,09,17.50
2018,06,29,15,10,17.50
2018,06,29,15,11,17.50
2018,06,29,15,12,17.40
2018,06,29,15,13,17.40
2018,06,29,15,14,17.40
2018,06,29,15,15,17.40
2018,06,29,15,16,17.40
2018,06,29,15,17,17.40
2018,06,29,15,18,17.40
2018,06,29,15,19,17.40
2018,06,29,15,20,17.50
2018,06,29,15,21,17.50
2018,06,29,15,22,17.50
2018,06,29,15,23,17.60
2018,06,29,15,24,17.50
2018,06,29,15,25,17.40
2018,06,29,15,26,17.40
2018,06,29,15,27,17.40
2018,06,29,15,28,17.30
2018,06,29,15,29,17.30
2018,06,29,15,30,17.30
2018,06,29,15,31,17.30
2018,06,29,15,32,17.20
2018,06,29,15,33,17.20
2018,06,29,15,34,17.10
2018,06,29,15,35,17.10
2018,06,29,15,36,17.00
2018,06,29,15,37,17.00
2018,06,29,15,38,17.00
2018,06,29,15,39,17.10
2018,06,29,15,40,17.10
2018,06,29,15,41,17.10
2018,06,29,15,42,17.10
2018,06,29,15,43,17.10
2018,06,29,15,44,17.10
2018,06,29,15,45,17.10
2018,06,29,15,46,17.10
2018,06,29,15,47,17.10
2018,06,29,15,48,17.10
2018,06,29,15,49,17.10
2018,06,29,15,50,17.10
2018,06,29,15,51,17.10
2018,06,29,15,52,17.20
2018,06,29,15,53,17.20
2018,06,29,15,54,17.20
2018,06,29,15,55,17.20
2018,06,29,15,56,17.20
2018,06,29,15,57,17.20
2018,06,29,15,58,17.20
2018,06,29,15,59,17.20
2018,06,29,16,00,17.20
2018,06,29,16,01,17.30
2018,06,29,16,02,17.30
2018,06,29,16,03,17.30
2018,06,29,16,04,17.30
2018,06,29,16,05,17.30
2018,06,29,16,06,17.20
2018,06,29,16,07,17.20
2018,06,29,16,08,17.20
2018,06,29,16,09,17.10
2018,06,29,16,10,17.10
2018,06,29,16,11,17.10
2018,06,29,16,12,17.10
2018,06,29,16,13,17.10
2018,06,29,16,14,17.10
2018,06,29,16,15,17.10
2018,06,29,16,16,17.00
2018,06,29,16,17,16.90
2018,06,29,16,18,16.90
2018,06,29,16,19,16.80
2018,06,29,16,20,16.80
2018,06,29,16,21,16.80
2018,06,29,16,22,16.70
2018,06,29,16,23,16.70
2018,06,29,16,24,16.70
2018,06,29,16,25,16.60
2018,06,29,16,26,16.60
2018,06,29,16,27,16.60
2018,06,29,16,28,16.60
2018,06,29,16,29,16.60
2018,06,29,16,30,16.50
2018,06,29,16,31,16.50
2018,06,29,16,32,16.40
2018,06,29,16,33,16.40
2018,06,29,16,34,16.40
2018,06,29,16,35,16.30
2018,06,29,16,36,16.40
2018,06,29,16,37,16.40
2018,06,29,16,38,16.40
2018,06,29,16,39,16.40
2018,06,29,16,40,16.50
2018,06,29,16,41,16.50
2018,06,29,16,42,16.50
2018,06,29,16,43,16.60
2018,06,29,16,44,16.60
2018,06,29,16,45,16.60
2018,06,29,16,46,16.70
2018,06,29,16,47,16.70
2018,06,29,16,48,16.70
2018,06,29,16,49,16.70
2018,06,29,16,50,16.70
2018,06,29,16,51,16.80
2018,06,29,16,52,16.80
2018,06,29,16,53,16.80
2018,06,29,16,54,16.80
2018,06,29,16,55,16.80
2018,06,29,16,56,16.80
2018,06,29,16,57,16.90
2018,06,29,16,58,16.90
2018,06,29,16,59,16.90
2018,06,29,17,00,16.90
2018,06,29,17,01,16.90
2018,06,29,17,02,17.00
2018,06,29,17,03,17.00
2018,06,29,17,04,17.00
2018,06,29,17,05,17.10
2018,06,29,17,06,17.00
2018,06,29,17,07,17.00
2018,06,29,17,08,17.00
2018,06,29,17,09,17.00
2018,06,29,17,10,16.90
2018,06,29,17,11,16.90
2018,06,29,17,12,16.80
2018,06,29,17,13,16.80
2018,06,29,17,14,16.80
2018,06,29,17,15,16.80
2018,06,29,17,16,16.70
2018,06,29,17,17,16.70
2018,06,29,17,18,16.70
2018,06,29,17,19,16.70
2018,06,29,17,20,16.70
2018,06,29,17,21,16.70
2018,06,29,17,22,16.60
2018,06,29,17,23,16.60
2018,06,29,17,24,16.70
2018,06,29,17,25,16.70
2018,06,29,17,26,16.70
2018,06,29,17,27,16.70
2018,06,29,17,28,16.70
2018,06,29,17,29,16.70
2018,06,29,17,30,16.70
2018,06,29,17,31,16.60
2018,06,29,17,32,16.60
2018,06,29,17,33,16.60
2018,06,29,17,34,16.60
2018,06,29,17,35,16.60
2018,06,29,17,36,16.70
2018,06,29,17,37,16.70
2018,06,29,17,38,16.70
2018,06,29,17,39,16.60
2018,06,29,17,40,16.60
2018,06,29,17,41,16.60
2018,06,29,17,42,16.60
2018,06,29,17,43,16.50
2018,06,29,17,44,16.60
2018,06,29,17,45,16.60
2018,06,29,17,46,16.60
2018,06,29,17,47,16.60
2018,06,29,17,48,16.60
2018,06,29,17,49,16.60
2018,06,29,17,50,16.60
2018,06,29,17,51,16.60
2018,06,29,17,52,16.60
2018,06,29,17,53,16.60
2018,06,29,17,54,16.60
2018,06,29,17,55,16.60
2018,06,29,17,56,16.50
2018,06,29,17,57,16.50
2018,06,29,17,58,16.60
2018,06,29,17,59,16.60
2018,06,29,18,00,16.60
2018,06,29,18,01,16.60
2018,06,29,18,02,16.50
2018,06,29,18,03,16.50
2018,06,29,18,04,16.50
2018,06,29,18,05,16.50
2018,06,29,18,06,16.50
2018,06,29,18,07,16.50
2018,06,29,18,08,16.50
2018,06,29,18,09,16.50
2018,06,29,18,10,16.50
2018,06,29,18,11,16.50
2018,06,29,18,12,16.50
2018,06,29,18,13,16.40
2018,06,29,18,14,16.40
2018,06,29,18,15,16.40
2018,06,29,18,16,16.40
2018,06,29,18,17,16.40
2018,06,29,18,18,16.40
2018,06,29,18,19,16.40
2018,06,29,18,20,16.40
2018,06,29,18,21,16.40
2018,06,29,18,22,16.40
2018,06,29,18,23,16.40
2018,06,29,18,24,16.40
2018,06,29,18,25,16.40
2018,06,29,18,26,16.40
2018,06,29,18,27,16.40
2018,06,29,18,28,16.40
2018,06,29,18,29,16.40
2018,06,29,18,30,16.40
2018,06,29,18,31,16.40
2018,06,29,18,32,16.50
2018,06,29,18,33,16.50
2018,06,29,18,34,16.50
2018,06,29,18,35,16.50
2018,06,29,18,36,16.50
2018,06,29,18,37,16.50
2018,06,29,18,38,16.50
2018,06,29,18,39,16.50
2018,06,29,18,40,16.50
2018,06,29,18,41,16.50
2018,06,29,18,42,16.50
2018,06,29,18,43,16.40
2018,06,29,18,44,16.40
2018,06,29,18,45,16.40
2018,06,29,18,46,16.40
2018,06,29,18,47,16.40
2018,06,29,18,48,16.40
2018,06,29,18,49,16.40
2018,06,29,18,50,16.50
2018,06,29,18,51,16.40
2018,06,29,18,52,16.40
2018,06,29,18,53,16.40
2018,06,29,18,54,16.40
2018,06,29,18,55,16.40
2018,06,29,18,56,16.40
2018,06,29,18,57,16.40
2018,06,29,18,58,16.40
2018,06,29,18,59,16.40
2018,06,29,19,00,16.40
2018,06,29,19,01,16.40
2018,06,29,19,02,16.40
2018,06,29,19,03,16.40
2018,06,29,19,04,16.30
2018,06,29,19,05,16.30
2018,06,29,19,06,16.30
2018,06,29,19,07,16.30
2018,06,29,19,08,16.30
2018,06,29,19,09,16.30
2018,06,29,19,10,16.30
2018,06,29,19,11,16.30
2018,06,29,19,12,16.30
2018,06,29,19,13,16.20
2018,06,29,19,14,16.20
2018,06,29,19,15,16.20
2018,06,29,19,16,16.20
2018,06,29,19,17,16.20
2018,06,29,19,18,16.20
2018,06,29,19,19,16.20
2018,06,29,19,20,16.20
2018,06,29,19,21,16.20
2018,06,29,19,22,16.20
2018,06,29,19,23,16.20
2018,06,29,19,24,16.20
2018,06,29,19,25,16.20
2018,06,29,19,26,16.20
2018,06,29,19,27,16.20
2018,06,29,19,28,16.20
2018,06,29,19,29,16.20
2018,06,29,19,30,16.20
2018,06,29,19,31,16.20
2018,06,29,19,32,16.20
2018,06,29,19,33,16.20
2018,06,29,19,34,16.20
2018,06,29,19,35,16.20
2018,06,29,19,36,16.20
2018,06,29,19,37,16.10
2018,06,29,19,38,16.10
2018,06,29,19,39,16.10
2018,06,29,19,40,16.20
2018,06,29,19,41,16.20
2018,06,29,19,42,16.20
2018,06,29,19,43,16.20
2018,06,29,19,44,16.20
2018,06,29,19,45,16.20
2018,06,29,19,46,16.20
2018,06,29,19,47,16.20
2018,06,29,19,48,16.10
2018,06,29,19,49,16.10
2018,06,29,19,50,16.10
2018,06,29,19,51,16.10
2018,06,29,19,52,16.10
2018,06,29,19,53,16.20
2018,06,29,19,54,16.20
2018,06,29,19,55,16.10
2018,06,29,19,56,16.10
2018,06,29,19,57,16.10
2018,06,29,19,58,16.10
2018,06,29,19,59,16.10
2018,06,29,20,00,16.10
2018,06,29,20,01,16.10
2018,06,29,20,02,16.10
2018,06,29,20,03,16.10
2018,06,29,20,04,16.10
2018,06,29,20,05,16.10
2018,06,29,20,06,16.00
2018,06,29,20,07,16.00
2018,06,29,20,08,16.00
2018,06,29,20,09,15.90
2018,06,29,20,10,15.90
2018,06,29,20,11,15.90
2018,06,29,20,12,15.90
2018,06,29,20,13,15.90
2018,06,29,20,14,15.90
2018,06,29,20,15,15.90
2018,06,29,20,16,15.90
2018,06,29,20,17,15.90
2018,06,29,20,18,15.80
2018,06,29,20,19,15.80
2018,06,29,20,20,15.80
2018,06,29,20,21,15.80
2018,06,29,20,22,15.80
2018,06,29,20,23,15.80
2018,06,29,20,24,15.80
2018,06,29,20,25,15.80
2018,06,29,20,26,15.80
2018,06,29,20,27,15.80
2018,06,29,20,28,15.80
2018,06,29,20,29,15.80
2018,06,29,20,30,15.80
2018,06,29,20,31,15.80
2018,06,29,20,32,15.80
2018,06,29,20,33,15.80
2018,06,29,20,34,15.80
2018,06,29,20,35,15.80
2018,06,29,20,36,15.80
2018,06,29,20,37,15.80
2018,06,29,20,38,15.80
2018,06,29,20,39,15.80
2018,06,29,20,40,15.80
2018,06,29,20,41,15.80
2018,06,29,20,42,15.80
2018,06,29,20,43,15.80
2018,06,29,20,44,15.80
2018,06,29,20,45,15.80
2018,06,29,20,46,15.80
2018,06,29,20,47,15.80
2018,06,29,20,48,15.80
2018,06,29,20,49,15.80
2018,06,29,20,50,15.80
2018,06,29,20,51,15.80
2018,06,29,20,52,15.80
2018,06,29,20,53,15.80
2018,06,29,20,54,15.80
2018,06,29,20,55,15.80
2018,06,29,20,56,15.80
2018,06,29,20,57,15.80
2018,06,29,20,58,15.80
2018,06,29,20,59,15.80
2018,06,29,21,00,15.80
2018,06,29,21,01,15.80
2018,06,29,21,02,15.80
2018,06,29,21,03,15.80
2018,06,29,21,04,15.80
2018,06,29,21,05,15.80
2018,06,29,21,06,15.80
2018,06,29,21,07,15.70
2018,06,29,21,08,15.70
2018,06,29,21,09,15.70
2018,06,29,21,10,15.70
2018,06,29,21,11,15.70
2018,06,29,21,12,15.70
2018,06,29,21,13,15.70
2018,06,29,21,14,15.70
2018,06,29,21,15,15.70
2018,06,29,21,16,15.70
2018,06,29,21,17,15.60
2018,06,29,21,18,15.60
2018,06,29,21,19,15.60
2018,06,29,21,20,15.60
2018,06,29,21,21,15.60
2018,06,29,21,22,15.60
2018,06,29,21,23,15.60
2018,06,29,21,24,15.60
2018,06,29,21,25,15.60
2018,06,29,21,26,15.60
2018,06,29,21,27,15.60
2018,06,29,21,28,15.60
2018,06,29,21,29,15.50
2018,06,29,21,30,15.50
2018,06,29,21,31,15.50
2018,06,29,21,32,15.50
2018,06,29,21,33,15.50
2018,06,29,21,34,15.40
2018,06,29,21,35,15.40
2018,06,29,21,36,15.40
2018,06,29,21,37,15.40
2018,06,29,21,38,15.40
2018,06,29,21,39,15.40
2018,06,29,21,40,15.40
2018,06,29,21,41,15.40
2018,06,29,21,42,15.40
2018,06,29,21,43,15.40
2018,06,29,21,44,15.40
2018,06,29,21,45,15.40
2018,06,29,21,46,15.30
2018,06,29,21,47,15.30
2018,06,29,21,48,15.30
2018,06,29,21,49,15.30
2018,06,29,21,50,15.30
2018,06,29,21,51,15.30
2018,06,29,21,52,15.30
2018,06,29,21,53,15.30
2018,06,29,21,54,15.30
2018,06,29,21,55,15.30
2018,06,29,21,56,15.30
2018,06,29,21,57,15.30
2018,06,29,21,58,15.30
2018,06,29,21,59,15.30
2018,06,29,22,00,15.30
2018,06,29,22,01,15.20
2018,06,29,22,02,15.20
2018,06,29,22,03,15.20
2018,06,29,22,04,15.20
2018,06,29,22,05,15.20
2018,06,29,22,06,15.20
2018,06,29,22,07,15.20
2018,06,29,22,08,15.20
2018,06,29,22,09,15.20
2018,06,29,22,10,15.20
2018,06,29,22,11,15.20
2018,06,29,22,12,15.20
2018,06,29,22,13,15.20
2018,06,29,22,14,15.20
2018,06,29,22,15,15.20
2018,06,29,22,16,15.20
2018,06,29,22,17,15.20
2018,06,29,22,18,15.10
2018,06,29,22,19,15.10
2018,06,29,22,20,15.10
2018,06,29,22,21,15.10
2018,06,29,22,22,15.10
2018,06,29,22,23,15.10
2018,06,29,22,24,15.10
2018,06,29,22,25,15.10
2018,06,29,22,26,15.10
2018,06,29,22,27,15.10
2018,06,29,22,28,15.10
2018,06,29,22,29,15.10
2018,06,29,22,30,15.10
2018,06,29,22,31,15.10
2018,06,29,22,32,15.10
2018,06,29,22,33,15.10
2018,06,29,22,34,15.10
2018,06,29,22,35,15.10
2018,06,29,22,36,15.00
2018,06,29,22,37,15.00
2018,06,29,22,38,15.00
2018,06,29,22,39,15.00
2018,06,29,22,40,15.00
2018,06,29,22,41,15.00
2018,06,29,22,42,15.00
2018,06,29,22,43,15.00
2018,06,29,22,44,15.00
2018,06,29,22,45,15.00
2018,06,29,22,46,15.00
2018,06,29,22,47,15.00
2018,06,29,22,48,15.00
2018,06,29,22,49,15.00
2018,06,29,22,50,15.00
2018,06,29,22,51,15.00
2018,06,29,22,52,15.00
2018,06,29,22,53,15.00
2018,06,29,22,54,15.00
2018,06,29,22,55,15.00
2018,06,29,22,56,15.00
2018,06,29,22,57,15.00
2018,06,29,22,58,15.00
2018,06,29,22,59,15.00
2018,06,29,23,00,15.10
2018,06,29,23,01,15.00
2018,06,29,23,02,15.00
2018,06,29,23,03,15.10
2018,06,29,23,04,15.00
2018,06,29,23,05,15.00
2018,06,29,23,06,15.10
2018,06,29,23,07,15.00
2018,06,29,23,08,15.00
2018,06,29,23,09,15.00
2018,06,29,23,10,15.00
2018,06,29,23,11,15.10
2018,06,29,23,12,15.10
2018,06,29,23,13,15.10
2018,06,29,23,14,15.10
2018,06,29,23,15,15.10
2018,06,29,23,16,15.10
2018,06,29,23,17,15.10
2018,06,29,23,18,15.10
2018,06,29,23,19,15.10
2018,06,29,23,20,15.10
2018,06,29,23,21,15.10
2018,06,29,23,22,15.10
2018,06,29,23,23,15.10
2018,06,29,23,24,15.10
2018,06,29,23,25,15.10
2018,06,29,23,26,15.10
2018,06,29,23,27,15.10
2018,06,29,23,28,15.10
2018,06,29,23,29,15.10
2018,06,29,23,30,15.10
2018,06,29,23,31,15.10
2018,06,29,23,32,15.10
2018,06,29,23,33,15.10
2018,06,29,23,34,15.10
2018,06,29,23,35,15.10
2018,06,29,23,36,15.10
2018,06,29,23,37,15.10
2018,06,29,23,38,15.10
2018,06,29,23,39,15.10
2018,06,29,23,40,15.10
2018,06,29,23,41,15.10
2018,06,29,23,42,15.10
2018,06,29,23,43,15.10
2018,06,29,23,44,15.10
2018,06,29,23,45,15.10
2018,06,29,23,46,15.20
2018,06,29,23,47,15.20
2018,06,29,23,48,15.20
2018,06,29,23,49,15.20
2018,06,29,23,50,15.20
2018,06,29,23,51,15.20
2018,06,29,23,52,15.20
2018,06,29,23,53,15.20
2018,06,29,23,54,15.20
2018,06,29,23,55,15.20
2018,06,29,23,56,15.20
2018,06,29,23,57,15.20
2018,06,29,23,58,15.20
2018,06,29,23,59,15.20
